Location: Perryvale
(54.4667°N, 113.3833°W)
Time: 13:22:45
(UTC+00:00)

Transit 2A Rocket - Visible Passes

Search period start: 18 May 2024 00:00
Search period end: 28 May 2024 00:00
Orbit: 585 x 908 km, 66.7° (Epoch: 17 May)

Date Brightness Start Highest point End Pass type
(mag) Time Alt. Az. Time Alt. Az. Time Alt. Az.
22 May 7.3 10:12:42 10° SE 10:15:05 13° ESE 10:17:32 10° ENE visible
25 May 7.1 09:42:01 10° SSE 09:45:13 17° ESE 09:48:34 10° ENE visible
26 May 7.5 09:01:11 10° ESE 09:01:42 10° E 09:02:14 10° E visible
27 May 6.2 09:54:37 10° S 09:59:02 34° ESE 10:03:52 10° NE visible
